Theta_e
303 303 307 337 346 347 350 351 353 352 354 354 354 354 354 354 353 352 352 349 348 352 350 351 352 354 353 352 350 347 345 343
302 302 303 305 337 346 348 349 349 351 351 353 351 349 350 349 350 350 347 345 344 345 346 346 347 348 349 348 345 343 341 340
301 303 303 304 305 313 345 347 348 349 347 352 350 349 349 348 349 349 348 345 343 343 343 344 343 346 345 344 343 340 339 338
301 301 302 303 304 316 342 345 347 345 347 350 349 350 349 348 348 349 348 345 344 342 341 341 341 342 343 343 342 340 338 337
302 302 302 302 304 305 328 345 345 342 344 345 346 348 348 348 349 348 346 346 345 342 340 339 341 341 341 341 340 339 337 337
300 303 302 304 303 304 307 327 345 342 342 343 344 343 346 347 347 347 347 348 345 341 339 339 341 341 341 340 339 338 337 337
303 303 304 304 304 303 306 318 343 344 344 343 340 338 340 342 342 342 344 347 346 343 340 340 341 340 340 339 339 338 338 338
304 304 305 305 305 304 305 311 338 344 343 339 340 338 340 340 340 341 341 343 345 340 340 339 339 339 338 337 338 338 338 339
307 309 307 307 305 304 304 306 312 338 336 338 336 340 339 339 342 343 343 342 343 341 338 338 339 337 338 339 337 336 337 338
308 309 310 309 306 305 304 306 310 334 338 336 337 337 336 338 338 340 343 343 343 341 340 340 340 338 338 337 337 336 336 335
306 307 308 309 309 305 306 306 310 323 333 334 334 336 336 334 333 334 337 340 343 345 343 342 341 339 336 337 337 336 331 329
306 306 308 309 311 307 306 307 309 317 330 333 331 329 325 327 330 334 335 337 340 342 342 342 341 339 338 336 338 337 332 327
305 306 307 310 311 312 312 312 316 320 328 329 326 322 322 328 330 331 334 336 338 340 340 340 339 339 340 338 338 337 333 328
307 309 308 307 311 311 314 315 315 318 322 323 321 318 322 323 327 328 330 332 336 340 341 340 339 338 337 337 338 337 330 327
306 306 307 307 307 309 311 312 314 318 321 322 321 320 321 321 323 328 328 327 332 335 339 340 340 337 335 332 330 327 325 322
308 307 307 308 307 308 309 310 312 314 316 319 326 325 323 323 326 329 328 328 329 335 337 338 337 329 325 323 320 319 317 314
305 307 308 308 308 307 307 309 311 313 314 316 318 320 324 328 329 330 329 329 331 333 336 336 328 323 321 319 316 314 314 312
305 306 307 308 309 309 308 309 310 312 316 317 318 319 321 326 329 328 328 329 331 331 333 327 321 319 316 315 312 311 310 309
305 307 309 311 311 309 309 308 311 313 315 319 320 322 323 325 325 326 328 327 326 323 320 320 319 316 314 312 310 310 308 307
306 309 311 311 309 308 307 308 310 312 314 318 321 323 324 323 325 325 324 321 320 319 318 316 315 314 312 311 309 309 306 305
Wind_Speed
4 5 4 6 5 3 7 7 9 10 6 4 5 4 4 5 8 5 6 6 6 5 2 2 2 6 3 4 4 3 4 3
8 7 7 6 6 8 8 7 7 10 4 5 5 6 7 5 8 9 8 6 6 7 6 5 4 4 5 4 3 4 6 5
8 9 7 9 8 10 9 8 9 8 7 6 5 8 8 8 8 7 8 6 7 6 6 4 4 5 4 4 4 5 6 6
8 7 10 8 10 10 9 9 12 8 9 10 8 7 8 7 6 7 8 8 7 6 4 5 5 5 5 5 5 5 5 5
11 10 10 10 9 10 9 10 8 10 12 8 7 7 6 6 6 6 8 8 6 6 4 4 6 5 6 5 5 4 5 5
11 13 9 10 8 10 10 6 10 11 9 9 7 7 7 6 5 6 9 9 8 6 5 6 5 4 5 5 4 5 5 4
11 11 10 10 10 9 10 8 11 13 11 8 5 3 4 5 5 5 8 10 10 8 7 5 5 5 5 5 4 4 4 4
14 14 12 10 10 9 9 6 8 10 4 5 4 3 5 5 6 6 7 7 10 8 6 7 5 5 5 5 7 4 4 3
11 11 13 13 12 9 10 8 11 5 3 4 3 6 5 3 5 7 8 7 9 9 6 7 6 6 8 7 4 5 4 3
17 16 14 12 14 11 9 10 7 8 5 2 3 3 2 2 3 5 4 2 5 7 9 8 10 8 8 6 6 3 3 5
15 18 15 15 17 14 9 9 9 9 7 4 4 4 2 1 1 1 3 5 7 9 9 9 10 8 7 7 6 8 5 2
14 18 21 20 18 11 7 5 7 2 6 4 7 5 4 1 3 1 3 4 6 8 9 8 7 7 9 8 5 5 3 4
15 18 18 19 19 16 9 3 2 4 7 6 1 4 3 3 1 3 2 2 4 6 9 10 8 6 7 8 9 11 10 5
11 15 17 19 20 19 15 8 4 8 7 6 5 6 4 4 3 3 2 3 3 6 7 7 8 9 9 8 8 7 4 2
7 15 17 18 19 17 14 10 11 5 4 8 7 7 8 7 6 4 4 3 3 5 6 7 7 8 8 7 6 6 7 7
9 8 13 16 15 16 13 14 13 11 9 6 2 4 3 4 5 4 4 4 4 4 6 7 5 5 5 7 5 5 9 9
7 8 11 15 14 13 13 9 11 11 8 6 6 5 3 4 6 5 4 4 2 5 8 6 4 6 8 9 7 9 8 8
7 6 9 14 10 9 11 8 6 7 6 6 5 5 5 4 4 5 4 4 5 7 5 4 7 7 9 10 9 9 12 8
6 3 5 5 16 9 8 8 7 8 8 7 7 9 9 7 5 5 5 5 4 4 4 4 7 9 9 10 10 12 14 11
6 6 5 2 6 11 8 7 6 6 7 6 9 8 10 8 7 6 4 4 5 5 5 7 8 7 10 10 13 11 12 12
Wind_Direction
307 279 275 236 216 252 225 204 214 213 205 181 197 201 185 200 194 178 200 208 216 214 197 227 215 250 236 253 274 275 279 271
284 273 260 259 246 240 204 205 208 215 196 198 197 208 208 197 209 197 202 208 212 214 212 210 209 229 239 240 251 262 273 270
277 259 237 250 243 252 237 183 206 214 199 204 200 215 214 210 198 196 201 205 218 214 210 192 199 210 220 235 245 257 272 285
305 279 267 221 239 243 232 209 201 185 202 209 209 215 216 207 200 192 201 218 225 209 203 204 213 210 215 224 236 248 259 263
279 267 266 251 234 243 232 212 203 200 199 201 204 206 196 206 199 197 197 209 218 216 216 213 226 215 214 219 236 245 258 253
286 284 268 272 249 231 244 226 200 198 203 203 208 207 190 208 203 189 202 205 201 206 214 226 224 214 219 220 223 243 248 248
301 289 282 280 277 240 236 236 205 199 208 207 197 176 197 198 191 203 203 205 202 205 210 220 218 222 217 225 232 215 237 254
313 312 302 296 272 252 238 202 254 211 173 138 160 189 218 202 212 210 206 208 203 194 206 213 220 219 233 219 229 207 229 228
296 311 309 315 280 259 226 211 214 182 165 173 180 208 209 208 212 202 208 202 201 198 205 202 206 224 232 229 222 209 218 189
329 333 332 319 305 271 239 216 205 195 198 178 138 147 170 169 205 228 232 228 213 209 199 203 203 208 221 204 197 191 203 187
333 343 341 335 328 293 244 231 218 188 187 127 88 77 69 138 96 189 220 214 218 219 221 210 212 194 199 199 190 183 188 193
352 353 360 357 336 301 282 244 229 134 138 177 153 165 161 153 191 155 251 214 226 225 230 226 204 191 190 198 166 210 171 191
350 354 356 4 351 358 348 25 138 145 159 144 78 96 114 193 147 227 237 242 237 239 237 231 221 215 218 210 194 177 211 164
352 355 358 3 357 5 6 348 80 107 120 128 144 138 154 177 196 230 229 251 243 237 231 231 229 218 208 201 195 179 169 161
7 2 357 352 356 356 4 358 25 1 132 121 168 178 190 204 208 220 217 250 246 244 241 232 240 222 200 163 160 142 150 133
356 359 1 345 350 341 355 3 16 24 36 23 285 256 231 220 209 231 238 231 240 258 253 237 200 140 128 122 120 120 131 126
328 346 19 346 337 337 329 359 0 15 19 23 17 15 336 264 251 249 271 287 308 298 275 230 148 136 126 116 114 111 104 107
314 338 16 355 329 317 325 337 1 336 7 17 8 347 334 284 249 254 283 327 321 314 307 108 111 118 125 125 123 118 110 97
294 340 27 2 328 327 308 332 355 11 3 356 10 1 354 351 0 1 346 346 356 34 59 95 122 124 124 120 118 122 112 106
276 298 338 357 298 306 315 327 346 351 345 3 9 5 356 350 342 337 23 47 49 84 98 103 107 109 124 129 129 118 115 119